Cairo, IL

11:59 PM CDT on September 24, 2017 (GMT -0500)
Cairo Regional

Weather History for KCIR - December, 2011

Change the Weather History Date:

Saturday, December 3, 2011

  Actual Average Record
Temperature  
Mean Temperature 50 °F -  
Max Temperature 62 °F 50 °F 73 °F (2012)
Min Temperature 39 °F 34 °F 16 °F (1989)
Degree Days  
Heating Degree Days 14    
Moisture  
Dew Point 36 °F    
Average Humidity 58    
Maximum Humidity 81    
Minimum Humidity 39    
Precipitation  
Precipitation 0.00 in - - ()
Sea Level Pressure  
Sea Level Pressure 30.27 in    
Wind  
Wind Speed 5 mph (SSE)    
Max Wind Speed 20 mph    
Max Gust Speed 23 mph    
Visibility 10 miles    
Events      
Averages and records for this station are not official NWS values.
T = Trace of Precipitation, MM = Missing Value Source: NWS Daily Summary

Daily Weather History Graph

Daily Weather History Graph

Search for Another Location

Airport or City:

Trip Planner

Search our weather history database for the weather conditions in past years. The results will help you decide how hot, cold, wet, or windy it might be!

Date:

Astronomy

Dec. 03, 2011 Rise Set
Actual Time 6:53 AM CST 4:39 PM CST
Civil Twilight 6:24 AM CST 5:08 PM CST
Nautical Twilight 5:52 AM CST 5:40 PM CST
Astronomical Twilight 5:20 AM CST 6:12 PM CST
Moon 12:37 PM CST (12/3) 12:29 AM CST (12/3)
Length of Visible Light 10h 43m
Length of Day
9h 46m
Waxing Gibbous, 63% of the Moon is Illuminated
Dec 3
Waxing Gibbous
Dec 10
Full
Dec 17
Last Quarter
Dec 24
New
Jan 1
First Quarter

Hourly Weather History & Observations

Time (CST) Temp. Windchill Dew Point Humidity Pressure Visibility Wind Dir Wind Speed Gust Speed Precip Events Conditions
12:15 AM 42.8 °F 41.1 °F 37.4 °F 81% 30.36 in 10.0 mi ENE 3.5 mph - N/A   Clear
12:35 AM 42.8 °F 41.1 °F 37.4 °F 81% 30.36 in 10.0 mi East 3.5 mph - N/A   Clear
12:55 AM 41.0 °F - 35.6 °F 81% 30.36 in 10.0 mi Calm Calm - N/A   Clear
1:15 AM 41.0 °F - 35.6 °F 81% 30.35 in 10.0 mi Calm Calm - N/A   Clear
1:35 AM 41.0 °F 39.0 °F 35.6 °F 81% 30.35 in 2.5 mi ESE 3.5 mph - N/A   Haze
1:55 AM 41.0 °F 39.0 °F 35.6 °F 81% 30.34 in 10.0 mi East 3.5 mph - N/A   Clear
2:15 AM 39.2 °F - 33.8 °F 81% 30.34 in 10.0 mi Calm Calm - N/A   Clear
2:35 AM 41.0 °F - 35.6 °F 81% 30.34 in 10.0 mi Calm Calm - N/A   Clear
2:55 AM 41.0 °F 39.0 °F 35.6 °F 81% 30.33 in 10.0 mi ESE 3.5 mph - N/A   Clear
3:15 AM 42.8 °F 40.1 °F 35.6 °F 76% 30.33 in 10.0 mi SE 4.6 mph - N/A   Clear
3:35 AM 44.6 °F - 35.6 °F 71% 30.33 in 10.0 mi Calm Calm - N/A   Clear
3:55 AM 41.0 °F - 33.8 °F 76% 30.34 in 10.0 mi Calm Calm - N/A   Clear
4:15 AM 42.8 °F - 35.6 °F 76% 30.33 in 10.0 mi Calm Calm - N/A   Clear
4:35 AM 41.0 °F - 35.6 °F 81% 30.34 in 10.0 mi Calm Calm - N/A   Clear
4:55 AM 41.0 °F - 35.6 °F 81% 30.34 in 10.0 mi Calm Calm - N/A   Clear
5:15 AM 41.0 °F - 35.6 °F 81% 30.34 in 10.0 mi Calm Calm - N/A   Clear
5:35 AM 42.8 °F - 33.8 °F 70% 30.34 in 10.0 mi Calm Calm - N/A   Clear
5:55 AM 42.8 °F - 33.8 °F 70% 30.33 in 10.0 mi Calm Calm - N/A   Clear
6:15 AM 42.8 °F - 33.8 °F 70% 30.33 in 10.0 mi Calm Calm - N/A   Clear
6:35 AM 42.8 °F - 33.8 °F 70% 30.33 in 10.0 mi Calm Calm - N/A   Clear
6:55 AM 42.8 °F - 35.6 °F 76% 30.33 in 10.0 mi Calm Calm - N/A   Clear
7:15 AM 44.6 °F - 35.6 °F 71% 30.33 in 5.0 mi Calm Calm - N/A   Haze
7:35 AM 46.4 °F - 35.6 °F 66% 30.34 in 1.0 mi Calm Calm - N/A   Haze
7:55 AM 46.4 °F - 35.6 °F 66% 30.34 in 5.0 mi Calm Calm - N/A   Haze
8:15 AM 48.2 °F - 35.6 °F 62% 30.33 in 7.0 mi SSE 6.9 mph - N/A   Clear
8:35 AM 50.0 °F - 37.4 °F 62% 30.34 in 10.0 mi SSE 6.9 mph - N/A   Clear
8:55 AM 50.0 °F - 37.4 °F 62% 30.34 in 10.0 mi SSE 6.9 mph - N/A   Clear
9:15 AM 51.8 °F - 37.4 °F 58% 30.34 in 10.0 mi SSE 10.4 mph - N/A   Clear
9:35 AM 51.8 °F - 37.4 °F 58% 30.35 in 10.0 mi SSE 8.1 mph - N/A   Clear
10:15 AM 53.6 °F - 37.4 °F 54% 30.33 in 10.0 mi SSE 10.4 mph - N/A   Clear
10:35 AM 55.4 °F - 37.4 °F 51% 30.32 in 10.0 mi SSE 13.8 mph - N/A   Clear
10:55 AM 55.4 °F - 37.4 °F 51% 30.31 in 10.0 mi South 10.4 mph - N/A   Clear
11:15 AM 57.2 °F - 39.2 °F 51% 30.30 in 10.0 mi SSE 9.2 mph - N/A   Clear
11:35 AM 57.2 °F - 39.2 °F 51% 30.30 in 10.0 mi South 6.9 mph - N/A   Clear
11:55 AM 59.0 °F - 39.2 °F 48% 30.29 in 10.0 mi South 11.5 mph - N/A   Clear
12:15 PM 60.8 °F - 41.0 °F 48% 30.27 in 10.0 mi South 11.5 mph - N/A   Clear
12:35 PM 60.8 °F - 39.2 °F 45% 30.25 in 10.0 mi South 13.8 mph - N/A   Clear
12:55 PM 62.6 °F - 37.4 °F 39% 30.24 in 10.0 mi South 19.6 mph 23.0 mph N/A   Clear
1:15 PM 62.6 °F - 37.4 °F 39% 30.23 in 10.0 mi South 16.1 mph 23.0 mph N/A   Clear
1:35 PM 62.6 °F - 37.4 °F 39% 30.22 in 10.0 mi South 16.1 mph 20.7 mph N/A   Clear
1:55 PM 62.6 °F - 37.4 °F 39% 30.20 in 10.0 mi South 16.1 mph - N/A   Clear
2:15 PM 62.6 °F - 37.4 °F 39% 30.20 in 10.0 mi South 15.0 mph - N/A   Clear
2:35 PM 62.6 °F - 37.4 °F 39% 30.19 in 10.0 mi SSE 12.7 mph 17.3 mph N/A   Clear
2:55 PM 62.6 °F - 37.4 °F 39% 30.18 in 10.0 mi SSE 11.5 mph 18.4 mph N/A   Clear
3:15 PM 62.6 °F - 37.4 °F 39% 30.18 in 10.0 mi SSE 13.8 mph 17.3 mph N/A   Clear
3:35 PM 60.8 °F - 37.4 °F 42% 30.18 in 10.0 mi SSE 11.5 mph - N/A   Clear
3:55 PM 60.8 °F - 37.4 °F 42% 30.16 in 10.0 mi SSE 11.5 mph 17.3 mph N/A   Clear
4:15 PM 59.0 °F - 37.4 °F 45% 30.16 in 10.0 mi SSE 10.4 mph - N/A   Clear
4:35 PM 57.2 °F - 37.4 °F 48% 30.14 in 10.0 mi SE 10.4 mph - N/A   Clear
4:55 PM 55.4 °F - 35.6 °F 47% 30.14 in 10.0 mi SE 9.2 mph - N/A   Clear
5:15 PM 55.4 °F - 37.4 °F 51% 30.15 in 10.0 mi SE 9.2 mph - N/A   Clear
5:35 PM 55.4 °F - 35.6 °F 47% 30.16 in 10.0 mi SE 6.9 mph - N/A   Clear
5:55 PM 57.2 °F - 35.6 °F 44% 30.16 in 10.0 mi SSE 5.8 mph - N/A   Mostly Cloudy
6:35 PM 57.2 °F - 37.4 °F 48% 30.16 in 10.0 mi SSE 8.1 mph - N/A   Overcast
6:55 PM 59.0 °F - 35.6 °F 42% 30.16 in 10.0 mi SSE 9.2 mph - N/A   Overcast
7:15 PM 59.0 °F - 35.6 °F 42% 30.15 in 10.0 mi SSE 11.5 mph - N/A   Overcast
7:35 PM 59.0 °F - 33.8 °F 39% 30.15 in 10.0 mi SSE 13.8 mph - N/A   Overcast
7:55 PM 59.0 °F - 33.8 °F 39% 30.15 in 10.0 mi SSE 12.7 mph - N/A   Overcast
8:15 PM 59.0 °F - 33.8 °F 39% 30.15 in 10.0 mi SSE 13.8 mph 19.6 mph N/A   Overcast
8:55 PM 59.0 °F - 33.8 °F 39% 30.14 in 10.0 mi SSE 15.0 mph - N/A   Overcast
9:15 PM 59.0 °F - 33.8 °F 39% 30.13 in 10.0 mi SSE 19.6 mph 28.8 mph N/A   Overcast
9:35 PM 59.0 °F - 35.6 °F 42% 30.12 in 10.0 mi SSE 20.7 mph 27.6 mph N/A   Mostly Cloudy
9:55 PM 59.0 °F - 37.4 °F 45% 30.12 in 10.0 mi SSE 20.7 mph 31.1 mph N/A   Mostly Cloudy
10:15 PM 59.0 °F - 37.4 °F 45% 30.11 in 10.0 mi SSE 18.4 mph 26.5 mph N/A   Mostly Cloudy
10:35 PM 59.0 °F - 39.2 °F 48% 30.11 in 10.0 mi SSE 17.3 mph 27.6 mph N/A   Scattered Clouds
11:15 PM 59.0 °F - 39.2 °F 48% 30.10 in 10.0 mi SSE 21.9 mph 26.5 mph N/A   Overcast
11:35 PM 59.0 °F - 41.0 °F 51% 30.10 in 10.0 mi SSE 24.2 mph 28.8 mph N/A   Overcast
11:55 PM 59.0 °F - 41.0 °F 51% 30.09 in 10.0 mi SSE 21.9 mph 28.8 mph N/A   Overcast